Flag for Brazil Weather past 2 weeks in Volta Redonda, Rio de Janeiro, Brazil

Now
70 °F

More clouds than sun.


Feels Like: 70 °F
Forecast: 62 / 73 °F
Wind: 6 mph from Southwest

Location: Galeao

Current Time: Sep 17, 2014 at 9:42:39 AM

Latest Report: Sep 17, 2014 at 9:00 AM


Visibility: 4 mi

Pressure: 30.15 "Hg

Humidity: 78%

Dew point: 63 °F

Location of Volta RedondaLocation

Historic Weather in Volta Redonda — Graph

°F

Volta Redonda temperature yesterday

Maximum temperature yesterday: 88 °F (at 10:00 AM)
Minimum temperature yesterday: 72 °F (at 5:00 AM)
Average temperature yesterday: 77 °F

Past Weeks' High & Low Weather Summary

 TemperatureHumidityPressure
High97 °F (Sep 11, 3:00 PM)94% (Sep 3, 4:00 AM)30.33 "Hg (Sep 3, 4:00 AM)
Low57 °F (Sep 6, 6:00 AM)18% (Sep 11, 3:00 PM)29.80 "Hg (Sep 15, 4:00 PM)
Average73 °F68%30.05 "Hg
* Reported Sep 2 8:00 AM — Sep 17 8:00 AM, Volta Redonda, Weather by CustomWeather, © 2014

Note: Actual official high and low records may vary slightly from our data, if they occured in-between our weather recording intervals... More about our weather records

Advertising

Volta Redonda weather history for previous 24 hours

 ConditionsComfort  
Time TempWeatherWind HumidityBarometerVisibility
8:00 AM
Sep 17
68 °FMore clouds than sun.3 mph88%30.12 "Hg4 mi
7:00 AM66 °FBroken clouds.8 mph88%30.12 "Hg5 mi
6:00 AM66 °FLight rain. Partly sunny.2 mph88%30.09 "Hg2 mi
5:00 AM66 °FPartly sunny.2 mph88%30.07 "Hg4 mi
4:00 AM66 °FPassing clouds.2 mph88%30.07 "Hg4 mi
3:00 AM66 °FLight rain. Partly cloudy.3 mph88%30.07 "Hg2 mi
2:00 AM66 °FLight rain. Passing clouds.2 mph88%30.07 "Hg2 mi
1:00 AM68 °FPassing clouds.5 mph83%30.07 "Hg2 mi
12:00 AM68 °FPassing clouds.3 mph83%30.09 "Hg4 mi
11:00 PM
Sep 16
72 °FPassing clouds.3 mph69%30.09 "HgN/A
10:00 PM72 °FPassing clouds.10 mph69%30.07 "Hg4 mi
9:00 PM73 °FPartly cloudy.14 mph65%30.07 "Hg4 mi
8:00 PM73 °FPassing clouds.13 mph69%30.04 "Hg4 mi
7:00 PM73 °FPartly cloudy.14 mph69%30.04 "Hg4 mi
6:00 PM73 °FPassing clouds.16 mph69%30.01 "Hg5 mi
5:00 PM73 °FPassing clouds.17 mph69%29.98 "Hg6 mi
4:00 PM77 °FScattered clouds.21 mph61%29.95 "Hg5 mi
3:00 PM81 °FPassing clouds.26 mph54%29.95 "Hg5 mi
2:00 PM82 °FPassing clouds.25 mph55%29.92 "Hg5 mi
1:00 PM82 °FClear.21 mph55%29.92 "Hg5 mi
12:00 PM86 °FClear.16 mph49%29.92 "Hg5 mi
11:00 AM88 °FClear.5 mph43%29.92 "Hg5 mi
10:00 AM88 °FClear.2 mph38%29.92 "Hg4 mi
9:00 AM81 °FHaze.2 mph58%29.92 "Hg3 mi
Weather by CustomWeather, © 2014

See weather overviewHow to use our weather pages